Home > Weather > Detroit > Past weeks

Flag for USA Weather for the Past 2 Weeks in Detroit, Michigan, USA

Now
61 °F

Broken clouds.


Feels Like: 61 °F
Forecast: 46 / 65 °F
Wind: 13 mph from East

Location: Detroit City Airport

Current Time: May 5, 2016 at 3:07:23 PM

Latest Report: May 5, 2016 at 1:53 PM


Visibility: 10 mi

Pressure: 29.85 "Hg

Humidity: 48%

Dew Point: 41 °F

Location of DetroitLocation

Historic Weather in Detroit — Graph

°F

Detroit Temperature Yesterday

Maximum temperature yesterday: 60 °F (at 2:53 PM)
Minimum temperature yesterday: 49 °F (at 10:53 PM)
Average temperature yesterday: 53 °F

High & Low Weather Summary for the Past Weeks

 TemperatureHumidityPressure
High66 °F (Apr 25, 1:53 PM)97% (Apr 22, 6:53 AM)30.24 "Hg (Apr 22, 6:53 AM)
Low36 °F (Apr 24, 5:53 AM)25% (Apr 23, 7:53 PM)29.57 "Hg (May 4, 2:53 PM)
Average50 °F66%29.96 "Hg
* Reported Apr 20 1:53 PM — May 5 1:53 PM, Detroit, Weather by CustomWeather, © 2016

Note: Actual official high and low records may vary slightly from our data, if they occured in-between our weather recording intervals... More about our weather records

Advertising

Detroit Weather History for the Previous 24 Hours

Scroll right to see more
 ConditionsComfort  
Time TempWeatherWind HumidityBarometerVisibility
1:53 PM
Thu, May 5
61 °FBroken clouds.13 mph48%29.85 "Hg10 mi
12:53 PM64 °FScattered clouds.15 mph47%29.85 "Hg10 mi
11:53 AM62 °FSunny.14 mph52%29.86 "Hg10 mi
10:53 AM59 °FSunny.15 mph60%29.86 "Hg10 mi
9:53 AM56 °FSunny.12 mph65%29.85 "Hg10 mi
8:53 AM52 °FSunny.12 mph72%29.83 "Hg10 mi
7:53 AM47 °FSunny.10 mph77%29.82 "Hg10 mi
6:53 AM44 °FClear.12 mph85%29.80 "Hg10 mi
5:53 AM43 °FClear.10 mph86%29.78 "Hg9 mi
4:53 AM44 °FClear.9 mph85%29.77 "Hg8 mi
3:53 AM45 °FClear.8 mph86%29.75 "Hg8 mi
2:53 AM47 °FPassing clouds.10 mph90%29.74 "Hg9 mi
1:53 AM49 °FPassing clouds.5 mph90%29.74 "Hg9 mi
12:53 AM49 °FMostly cloudy.5 mph93%29.73 "Hg8 mi
11:53 PM
Wed, May 4
50 °FOvercast.6 mph89%29.73 "Hg9 mi
10:53 PM49 °FOvercast.5 mph93%29.72 "Hg10 mi
9:53 PM50 °FLight rain. Fog.3 mph89%29.71 "Hg6 mi
9:04 PM50 °FLight rain. Cloudy.3 mph89%29.69 "Hg9 mi
7:53 PM50 °FLight rain. Overcast.7 mph89%29.67 "Hg7 mi
6:53 PM50 °FLight rain. Fog.9 mph86%29.65 "Hg6 mi
5:53 PM50 °FRain. Fog.13 mph86%29.64 "Hg3 mi
4:53 PM52 °FLight rain. Fog.6 mph89%29.61 "Hg5 mi
3:53 PM58 °FLight rain. Mostly cloudy.14 mph60%29.58 "Hg10 mi
Weather by CustomWeather, © 2016

See weather overviewHow to use our weather pages